Location: Newark
(35.9031°N, 139.7175°E)
Time: 11:42:27
(UTC+00:00)

Transit 2A - Pass Details

Date: 26 May 2020
Orbit: 592 x 967 km, 66.7° (Epoch: 06 July)

Event Time Altitude Azimuth Distance (km) Brightness Sun altitude
Rises 13:28:32 0° 340° (NNW) 3,547 10.6 -30.5°
Reaches altitude 10° 13:31:11 10° 347° (NNW) 2,641 9.7 -30.7°
Maximum altitude 13:37:02 41° 57° (ENE) 1,368 7.3 -31.0°
Enters shadow 13:37:23 40° 65° (ENE) 1,376 7.2 -31.0°
